Monarch Pass, CO

9:39 PM MST on November 23, 2017 (GMT -0700)
Monarch Pass

Weather History for KMYP - August, 2014

Change the Weather History Date:

Friday, August 8, 2014

  Actual Average (KALS) Record (KALS)
Temperature  
Mean Temperature 50 °F -  
Max Temperature 59 °F 80 °F 88 °F (1962)
Min Temperature 41 °F 46 °F 34 °F (2011)
Degree Days  
Heating Degree Days 15    
Moisture  
Dew Point 29 °F    
Average Humidity 50    
Maximum Humidity 93    
Minimum Humidity 23    
Precipitation  
Precipitation 0.00 in - - ()
Sea Level Pressure  
Sea Level Pressure 30.68 in    
Wind  
Wind Speed 12 mph (West)    
Max Wind Speed 34 mph    
Max Gust Speed 44 mph    
Visibility 9 miles    
Events Fog    
Averages and records for this station are not official NWS values.
T = Trace of Precipitation, MM = Missing Value Source: NWS Daily Summary

Daily Weather History Graph

Daily Weather History Graph

Search for Another Location

Airport or City:

Trip Planner

Search our weather history database for the weather conditions in past years. The results will help you decide how hot, cold, wet, or windy it might be!

Date:

Astronomy

Aug. 08, 2014 Rise Set
Actual Time 6:13 AM MDT 8:06 PM MDT
Civil Twilight 5:44 AM MDT 8:35 PM MDT
Nautical Twilight 5:09 AM MDT 9:10 PM MDT
Astronomical Twilight 4:31 AM MDT 9:47 PM MDT
Moon 6:20 PM MDT (8/8) 3:49 AM MDT (8/8)
Length of Visible Light 14h 51m
Length of Day
13h 53m
Waxing Gibbous, 94% of the Moon is Illuminated
Aug 8
Waxing Gibbous
Aug 10
Full
Aug 17
Last Quarter
Aug 25
New
Sep 2
First Quarter

Hourly Weather History & Observations

Time (MDT) Temp. Windchill Dew Point Humidity Pressure Visibility Wind Dir Wind Speed Gust Speed Precip Events Conditions
12:00 AM 46.4 °F 45.2 °F 30.2 °F 53% 30.69 in 10.0 mi ENE 3.5 mph - N/A   Clear
12:23 AM 44.6 °F 40.7 °F 32.0 °F 61% 30.69 in 10.0 mi ENE 6.9 mph - N/A   Clear
12:40 AM 44.6 °F 40.2 °F 33.8 °F 66% 30.68 in 10.0 mi ENE 8.1 mph - N/A   Clear
12:58 AM 44.6 °F 37.4 °F 35.6 °F 71% 30.67 in 10.0 mi East 16.1 mph - N/A   Clear
1:24 AM 44.6 °F 37.8 °F 35.6 °F 71% 30.67 in 10.0 mi East 15.0 mph - N/A   Clear
1:43 AM 42.8 °F 34.3 °F 37.4 °F 81% 30.67 in 10.0 mi ENE 19.6 mph - N/A   Clear
1:59 AM 42.8 °F 34.3 °F 37.4 °F 81% 30.66 in 10.0 mi ENE 19.6 mph - N/A   Clear
2:23 AM 41.0 °F 33.5 °F 37.4 °F 87% 30.67 in 10.0 mi ENE 13.8 mph - N/A   Clear
2:44 AM 41.0 °F 34.3 °F 39.2 °F 93% 30.67 in 1.0 mi ENE 11.5 mph - N/A   Overcast
3:04 AM 41.0 °F 37.1 °F 39.2 °F 93% 30.67 in 0.2 mi East 5.8 mph - N/A Fog Fog
3:21 AM 41.0 °F 36.4 °F 39.2 °F 93% 30.66 in 0.2 mi ENE 6.9 mph - N/A Fog Fog
3:41 AM 41.0 °F 37.1 °F 39.2 °F 93% 30.66 in 0.2 mi East 5.8 mph - N/A Fog Fog
4:03 AM 41.0 °F 39.0 °F 39.2 °F 93% 30.66 in 0.5 mi ESE 3.5 mph - N/A Fog Fog
4:22 AM 44.6 °F 43.1 °F 35.6 °F 71% 30.66 in 10.0 mi SSW 3.5 mph - N/A   Clear
4:39 AM 44.6 °F 41.4 °F 33.8 °F 66% 30.66 in 10.0 mi SSW 5.8 mph - N/A   Clear
5:01 AM 42.8 °F 38.0 °F 33.8 °F 70% 30.66 in 10.0 mi SW 8.1 mph - N/A   Clear
5:24 AM 42.8 °F 36.6 °F 33.8 °F 70% 30.65 in 10.0 mi SW 11.5 mph - N/A   Clear
5:40 AM 42.8 °F 36.6 °F 33.8 °F 70% 30.65 in 10.0 mi SW 11.5 mph - N/A   Clear
6:02 AM 42.8 °F 36.6 °F 33.8 °F 70% 30.66 in 10.0 mi SW 11.5 mph - N/A   Clear
6:24 AM 42.8 °F 36.6 °F 35.6 °F 76% 30.66 in 10.0 mi SW 11.5 mph - N/A   Clear
6:44 AM 42.8 °F 37.0 °F 33.8 °F 70% 30.66 in 10.0 mi WSW 10.4 mph - N/A   Clear
7:04 AM 42.8 °F 37.0 °F 33.8 °F 70% 30.66 in 10.0 mi WSW 10.4 mph - N/A   Clear
7:24 AM 42.8 °F 37.5 °F 33.8 °F 70% 30.67 in 10.0 mi West 9.2 mph - N/A   Clear
7:43 AM 42.8 °F 37.5 °F 33.8 °F 70% 30.67 in 10.0 mi West 9.2 mph - N/A   Clear
7:59 AM 44.6 °F 40.2 °F 35.6 °F 71% 30.67 in 10.0 mi SW 8.1 mph - N/A   Clear
8:21 AM 44.6 °F 39.7 °F 35.6 °F 71% 30.68 in 10.0 mi SW 9.2 mph - N/A   Clear
8:43 AM 46.4 °F 41.9 °F 35.6 °F 66% 30.68 in 10.0 mi SW 9.2 mph - N/A   Clear
8:59 AM 46.4 °F 42.9 °F 35.6 °F 66% 30.69 in 10.0 mi SSW 6.9 mph - N/A   Clear
9:23 AM 48.2 °F - 33.8 °F 58% 30.69 in 10.0 mi SW 5.8 mph - N/A   Clear
9:42 AM 50.0 °F - 33.8 °F 54% 30.69 in 10.0 mi WSW 12.7 mph 17.3 mph N/A   Clear
10:00 AM 50.0 °F - 32.0 °F 50% 30.69 in 10.0 mi WSW 11.5 mph 20.7 mph N/A   Clear
10:14 AM 50.0 °F - 33.8 °F 54% 30.70 in 10.0 mi SW 13.8 mph - N/A   Clear
10:44 AM 51.8 °F - 32.0 °F 47% 30.70 in 10.0 mi WSW 18.4 mph 24.2 mph N/A   Clear
11:01 AM 51.8 °F - 32.0 °F 47% 30.70 in 10.0 mi SW 15.0 mph 23.0 mph N/A   Clear
11:24 AM 53.6 °F - 32.0 °F 44% 30.71 in 10.0 mi West 13.8 mph 23.0 mph N/A   Clear
11:44 AM 53.6 °F - 28.4 °F 38% 30.71 in 10.0 mi West 11.5 mph 26.5 mph N/A   Scattered Clouds
11:59 AM 53.6 °F - 26.6 °F 35% 30.71 in 10.0 mi SW 18.4 mph 27.6 mph N/A   Clear
12:24 PM 55.4 °F - 26.6 °F 33% 30.71 in 10.0 mi West 17.3 mph 23.0 mph N/A   Clear
12:44 PM 55.4 °F - 26.6 °F 33% 30.70 in 10.0 mi WNW 23.0 mph 28.8 mph N/A   Clear
1:04 PM 53.6 °F - 21.2 °F 28% 30.70 in 10.0 mi WNW 26.5 mph 33.4 mph N/A   Clear
1:16 PM 53.6 °F - 23.0 °F 30% 30.70 in 10.0 mi SW 19.6 mph 38.0 mph N/A   Scattered Clouds
1:41 PM 55.4 °F - 23.0 °F 29% 30.69 in 10.0 mi SW 34.5 mph 41.4 mph N/A   Scattered Clouds
2:03 PM 57.2 °F - 21.2 °F 25% 30.69 in 10.0 mi SW 25.3 mph 40.3 mph N/A   Scattered Clouds
2:40 PM 59.0 °F - 23.0 °F 25% 30.69 in 10.0 mi WSW 20.7 mph 34.5 mph N/A   Scattered Clouds
3:02 PM 59.0 °F - 26.6 °F 29% 30.68 in 10.0 mi West 26.5 mph 39.1 mph N/A   Scattered Clouds
3:24 PM 59.0 °F - 21.2 °F 23% 30.67 in 10.0 mi WNW 24.2 mph 43.7 mph N/A   Scattered Clouds
3:44 PM 59.0 °F - 23.0 °F 25% 30.67 in 10.0 mi West 25.3 mph 41.4 mph N/A   Clear
3:59 PM 59.0 °F - 21.2 °F 23% 30.67 in 10.0 mi West 27.6 mph 43.7 mph N/A   Clear
4:24 PM 59.0 °F - 23.0 °F 25% 30.67 in 10.0 mi West 20.7 mph 41.4 mph N/A   Scattered Clouds
4:32 PM 59.0 °F - 23.0 °F 25% 30.67 in 10.0 mi West 26.5 mph 36.8 mph N/A   Scattered Clouds
5:04 PM 59.0 °F - 24.8 °F 27% 30.67 in 10.0 mi West 24.2 mph 36.8 mph N/A   Scattered Clouds
5:24 PM 59.0 °F - 24.8 °F 27% 30.67 in 10.0 mi West 18.4 mph 32.2 mph N/A   Scattered Clouds
5:43 PM 59.0 °F - 23.0 °F 25% 30.67 in 10.0 mi WSW 13.8 mph 33.4 mph N/A   Scattered Clouds
6:04 PM 59.0 °F - 24.8 °F 27% 30.67 in 10.0 mi West 21.9 mph 31.1 mph N/A   Clear
6:15 PM 59.0 °F - 26.6 °F 29% 30.67 in 10.0 mi West 16.1 mph 27.6 mph N/A   Scattered Clouds
6:44 PM 57.2 °F - 24.8 °F 29% 30.67 in 10.0 mi NW 12.7 mph 27.6 mph N/A   Scattered Clouds
6:58 PM 59.0 °F - 24.8 °F 27% 30.66 in 10.0 mi West 23.0 mph 28.8 mph N/A   Scattered Clouds
7:23 PM 55.4 °F - 23.0 °F 29% 30.67 in 10.0 mi West 20.7 mph 28.8 mph N/A   Scattered Clouds
7:42 PM 55.4 °F - 23.0 °F 29% 30.67 in 10.0 mi West 15.0 mph 24.2 mph N/A   Clear
8:02 PM 53.6 °F - 23.0 °F 30% 30.67 in 10.0 mi West 23.0 mph 27.6 mph N/A   Clear
8:22 PM 51.8 °F - 23.0 °F 33% 30.67 in 10.0 mi WNW 19.6 mph 23.0 mph N/A   Clear
8:43 PM 51.8 °F - 23.0 °F 33% 30.68 in 10.0 mi WNW 15.0 mph 21.9 mph N/A   Clear
9:04 PM 50.0 °F - 23.0 °F 35% 30.69 in 10.0 mi WNW 12.7 mph - N/A   Clear
9:24 PM 50.0 °F - 23.0 °F 35% 30.69 in 10.0 mi NW 12.7 mph - N/A   Clear
9:44 PM 50.0 °F - 23.0 °F 35% 30.71 in 10.0 mi NW 9.2 mph - N/A   Clear
10:00 PM 50.0 °F - 23.0 °F 35% 30.71 in 10.0 mi NW 12.7 mph 17.3 mph N/A   Clear
10:23 PM 50.0 °F - 23.0 °F 35% 30.71 in 10.0 mi NW 9.2 mph - N/A   Clear
10:44 PM 50.0 °F - 23.0 °F 35% 30.72 in 10.0 mi NW 8.1 mph - N/A   Clear
11:24 PM 48.2 °F - 23.0 °F 37% 30.72 in 10.0 mi WNW 10.4 mph - N/A   Scattered Clouds
11:43 PM 48.2 °F - 23.0 °F 37% 30.72 in 10.0 mi WNW 10.4 mph - N/A   Clear
11:58 PM 48.2 °F - 24.8 °F 40% 30.72 in 10.0 mi WNW 11.5 mph - N/A   Scattered Clouds